Tracking 25734 objects as of 26-May-2022
HD Live streaming from Space Station
objects crossing your sky now

CZ-3B DEB

Track CZ-3B DEB now!


NORAD ID: 40169
Int'l Code: 2010-042W
Perigee: 1,321.4 km
Apogee: 40,253.6 km
Inclination: 26.3 °
Period: 742.4 minutes
Semi major axis: 27158 km
RCS: Unknown
Launch date: September 4, 2010
Source: People's Republic of China (PRC)
Launch site: Xichang Space Center, China (XSC)

Note: This is SATELLITE DEBRIS
aabbcc
Your satellite tracking list
Your tracking list is empty




NASA's NSSDC Master Catalog

Two Line Element Set (TLE):
1 40169U 10042W   22145.57330154 -.00000305  00000-0  00000-0 0  9998
2 40169  26.2596 241.8354 7167586 148.1169 271.0199  1.93974390 68995
Source of the keplerian elements: AFSPC